Погода в Апреле

Россия / Томская область     56°23′16″N   85°04′19″E
темп.,
°C
ветер,
м/с
пор.,
м/с
влажн.,
%
обл.,
%
осадки,
мм/ч
давл.,
гПа
погр.,
м
4 августа, ср
ср401:00+15ю119413 2.0 100611
04:00+14ю1195100 0.0 100712
07:00+15юз1195100 0.0 100742
10:00+19зюз1180100 0.1 1007341
13:00+22з1170100 2.7 1007771
16:00+24сз1150100 0.2 10061751
19:00+22сз126660 0.3 1006300
22:00+16с0189100 2.1 100611
5 августа, чт
чт501:00+14ю119680 3.6 100611
04:00+13всв0097100 1.1 100611
07:00+14юв1297100 2.3 100684
10:00+18в1286100 0.7 1006427
13:00+21с1168100 1.7 1006903
16:00+22ссз225751 0.7 10051302
19:00+21сз22637 0.7 1005581
22:00+15ссз2294100 0.1 100644
6 августа, пт
пт601:00+14ссз119722 0.1 100615
04:00+13с11965 0.0 100611
07:00+14ссз119360 0.0 100747
10:00+21зсз1170100 0.0 1007462
13:00+23ссз226457 0.5 10071146
16:00+24с126252 1.8 10071089
19:00+22с237115 3.0 1008413
22:00+17с119067 0.1 100811
7 августа, сб
сб701:00+16з1194100 0.7 100911
04:00+15сз0195100 0.0 100910
07:00+16сз009596 0.4 101120
10:00+21юз10785 0.0 1011420
13:00+26юв13546 0.0 10111396
16:00+28в244126 0.0 10112321
19:00+26вюв23589 0.0 1011225
22:00+18ююв11929 0.8 101215
8 августа, вс
вс801:00+17юв11922 1.4 101211
04:00+15вюв11944 0.0 101211
07:00+16вюв23935 0.0 101376
10:00+22вюв24665 0.0 1013376
13:00+27вюв34416 0.0 10111781
16:00+28вюв23345 0.0 10112416
19:00+26в365322 0.0 1011406
22:00+19вюв227414 0.0 101125